Date,TemperatureHighF,TemperatureAvgF,TemperatureLowF,DewpointHighF,DewpointAvgF,DewpointLowF,HumidityHigh,HumidityAvg,HumidityLow,PressureMaxIn,PressureMinIn,WindSpeedMaxMPH,WindSpeedAvgMPH,GustSpeedMaxMPH,PrecipitationSumIn
2013-3-1,66,52,41,50,45,39,99,78,49,0.00,40.00,10,6,23,0.00
2013-3-2,67,54,44,50,46,41,99,78,44,0.00,40.00,13,7,29,0.00
2013-3-3,73,53,37,52,36,-20,99,66,2,0.00,40.00,16,7,33,0.00
2013-3-4,66,54,38,47,33,17,78,49,15,0.00,40.00,10,7,21,0.00
2013-3-5,66,53,38,51,41,28,97,66,36,0.00,40.00,9,5,22,0.00
2013-3-6,66,52,38,54,45,31,100,81,42,0.00,40.00,9,4,21,0.02
2013-3-7,63,52,36,55,47,34,100,87,55,0.00,40.00,8,4,19,0.04
2013-3-8,65,54,39,52,48,36,100,82,54,0.00,40.00,8,5,17,0.05
2013-3-9,66,54,38,51,44,36,96,71,48,0.00,40.00,18,9,33,0.01
2013-3-10,65,57,47,49,44,36,95,65,43,0.00,40.00,17,10,31,0.00
2013-3-11,68,54,41,56,44,32,97,72,36,0.00,40.00,11,7,21,0.03
2013-3-12,64,56,50,54,50,41,98,83,57,0.00,40.00,11,5,22,0.03
2013-3-13,68,55,44,54,46,37,98,73,40,0.00,40.00,10,5,20,0.00
2013-3-14,68,54,42,54,48,36,97,81,31,0.00,40.00,10,5,20,0.00
2013-3-15,64,56,50,56,50,44,97,81,68,0.00,40.00,12,9,22,0.00
2013-3-16,64,55,50,53,45,25,99,72,29,0.00,40.00,12,7,22,0.00
2013-3-17,60,54,45,51,47,41,99,79,55,0.00,40.00,15,8,26,0.00
2013-3-18,68,54,39,47,44,33,95,70,44,0.00,40.00,12,6,28,0.00
2013-3-19,68,53,37,53,45,36,96,76,45,0.00,40.00,12,7,27,0.00
2013-3-20,66,54,42,56,48,38,99,83,51,0.00,40.00,6,4,15,0.00
2013-3-21,68,56,45,55,48,39,100,77,49,0.00,40.00,9,5,20,0.00
2013-3-22,64,55,45,56,48,38,98,80,40,0.00,40.00,7,5,16,0.00
2013-3-23,64,56,49,57,52,46,98,87,65,0.00,40.00,7,4,15,0.00
2013-3-24,64,56,50,56,52,48,99,86,65,0.00,40.00,10,4,18,0.00
2013-3-25,69,57,45,55,50,43,98,79,46,0.00,40.00,8,4,19,0.00
2013-3-26,69,57,45,54,49,44,97,78,51,0.00,40.00,9,5,21,0.00
2013-3-27,68,56,46,53,46,39,98,73,42,0.00,40.00,9,5,23,0.00
2013-3-28,69,60,46,51,46,40,90,63,44,0.00,40.00,10,6,23,0.00
2013-3-29,66,55,43,56,48,38,100,80,44,0.00,40.00,9,5,20,0.37
2013-3-30,60,52,44,54,50,43,99,93,72,0.00,40.00,9,3,16,0.41
2013-3-31,67,54,43,52,47,18,97,79,46,0.00,40.00,9,6,21,0.01